AMAZONAS 4A

Last updated on Mon Sep 07 2026 00:02:59 GMT+0000 (Coordinated Universal Time)

1 39616U 14011A 26249.57708828 -.00000269 00000+0 00000+0 0 9996 2 39616 0.0581 198.9930 0006301 343.2660 297.1761 1.00269921 45534
UTC large
Height (km)
Speed (km/s)
/
Latitude / Longitude
Inclination (degrees)
Orbital Period (minutes)
Azimuth
Elevation
Range (km)
Doppler Factor

Next 0 passes for location: London (51.5072 / 0.1276)

No passes found over London.
AMAZONAS 4A